Content
SEND FEEDBACK

Daily
Averages
Monthly
Summary
United States of America

ST. LOUIS, MISSOURI


Home > North America > United States > Missouri
Elevation: 535 feet     Latitude: 38 45N     Longitude: 090 22W

WEATHER
 
SELECT A DAY
Number of Records: 196,364;   Date Range: 1/1/95 - 7/26/14
 
SHARE

PRINT THIS DATA

[ ← Previous Day ]
WEATHER ALMANAC - APRIL 19, 2014
[ Next Day → ]
[ °C ]   °F
Weather ElementAverageHighLow
Temperature60.2 °F73.9 °F (4:54 pm)39.2 °F (6:54 am)
Dewpoint40.3 °F44.1 °F (7:54 am)37.4 °F (6:54 am)
Humidity53.4 %93 % (3:54 am)28 % (3:54 pm)
Barometer30.21 in30.29 in (8:54 am)30.14 in (6:54 pm)
Wind Speed4.5 mph11.5 mph (1:54 pm)
Wind Gust17.3 mph (1:54 pm)
Weather ElementAverage
Visibility10 mi
Wind DirectionENE (72.6 °)

Weather ElementTotal
Precipitation---
Heating Degree Days8.5 (Base 65)
Growing Degree Days6.6 (Base 50)
Averaged from 23 records on April 19, 2014
WEATHER CONDITIONS BREAKOUT
WIND DIRECTION BREAKOUT
WEATHER BY HOUR - APRIL 19, 2014
[ °C ]   °F
Local TimeTemperatureDewpointHumidityBarometerVisibilityWind DirectionWind SpeedGust SpeedPrecipitationEventsConditions
1:54 AM44.1 °F39.9 °F85 %30.24 in10.0 miCalmClear
2:54 AM42.1 °F39.0 °F89 %30.25 in10.0 miCalmClear
3:54 AM41.0 °F39.0 °F93 %30.24 in10.0 miCalmClear
4:54 AM42.1 °F39.0 °F89 %30.24 in10.0 miCalmClear
5:54 AM39.9 °F37.9 °F93 %30.25 in10.0 miCalmClear
6:54 AM39.2 °F37.4 °F93 %30.26 in10.0 miENE (70°)3.5 mphClear
7:54 AM50.0 °F44.1 °F80 %30.28 in10.0 miCalmClear
8:54 AM57.0 °F41.0 °F55 %30.29 in10.0 miEast (100°)4.6 mphClear
9:54 AM62.1 °F42.1 °F48 %30.29 in10.0 miESE (110°)5.8 mphClear
10:54 AM66.9 °F44.1 °F44 %30.28 in10.0 miEast (90°)9.2 mphClear
11:54 AM70.0 °F42.1 °F36 %30.25 in10.0 miSE (140°)6.9 mphClear
12:54 PM71.1 °F41.0 °F34 %30.22 in10.0 miEast (100°)9.2 mphClear
1:54 PM73.0 °F41.0 °F31 %30.21 in10.0 miEast (100°)11.5 mph17.3 mphClear
2:54 PM73.0 °F39.0 °F29 %30.19 in10.0 miSSE (150°)4.6 mphClear
3:54 PM73.0 °F37.9 °F28 %30.18 in10.0 miEast (90°)8.1 mphMostly Cloudy
4:54 PM73.9 °F41.0 °F30 %30.16 in10.0 miEast (90°)10.4 mphClear
5:54 PM73.0 °F39.9 °F30 %30.15 in10.0 miESE (120°)5.8 mphMostly Cloudy
6:54 PM72.0 °F39.9 °F31 %30.14 in10.0 miEast (100°)5.8 mphClear
7:54 PM69.1 °F39.0 °F33 %30.14 in10.0 miESE (110°)5.8 mphScattered Clouds
8:54 PM64.9 °F39.9 °F40 %30.15 in10.0 miEast (100°)4.6 mphClear
9:54 PM64.0 °F41.0 °F43 %30.15 in10.0 miESE (110°)3.5 mphClear
10:54 PM62.1 °F41.0 °F46 %30.16 in10.0 miEast (90°)4.6 mphClear
11:54 PM61.0 °F41.0 °F48 %30.16 in10.0 miCalmClear
Hourly data recorded from KSUS, located miles away from St. Louis, Missouri







STORIES FROM OUR PARTNERS